When you browse on this site, cookies collect data to enhance your experience and personalize the content and advertising you see.
Visit our Privacy Policy to learn more. By continuing to use the site, you agree to this use of cookies and data.
  • In Hungary
  • List of Countries
  • For 7 days
  • Water Temperature
  • Satellite Maps
  • Weather Map
  • News
  • Weather Widgets
  • user-avatar
    Login

    Hourly Weather Tumany

    Today, 21 May, Tuesday

    Time Temperature Precipitation Wind Pressure Humidity
    00:00 +16°C° 0 mm 2 mps 752 mmHg 76%
    01:00 +15°C° 0 mm 2 mps 752 mmHg 79%
    02:00 +14°C° 0 mm 1 mps 752 mmHg 82%
    03:00 +15°C° 0 mm 1 mps 752 mmHg 83%
    04:00 +15°C° 0 mm 2 mps 752 mmHg 83%
    05:00 +16°C° 0 mm 2 mps 752 mmHg 83%
    06:00 +17°C° 0 mm 2 mps 752 mmHg 78%
    07:00 +19°C° 0 mm 2 mps 752 mmHg 74%
    08:00 +21°C° 0 mm 2 mps 752 mmHg 69%
    09:00 +23°C° 0.1 mm 2 mps 751 mmHg 64%
    10:00 +24°C° 0.1 mm 3 mps 751 mmHg 60%
    11:00 +26°C° 0.1 mm 3 mps 751 mmHg 55%
    12:00 +26°C° 0.9 mm 2 mps 751 mmHg 58%
    13:00 +26°C° 0.9 mm 2 mps 751 mmHg 62%
    14:00 +25°C° 0.9 mm 1 mps 750 mmHg 65%
    15:00 +25°C° 0.8 mm 1 mps 750 mmHg 69%
    16:00 +24°C° 0.8 mm 1 mps 750 mmHg 72%
    17:00 +24°C° 0.8 mm 1 mps 750 mmHg 76%
    18:00 +23°C° 0.3 mm 1 mps 749 mmHg 79%
    19:00 +21°C° 0.3 mm 1 mps 749 mmHg 82%
    20:00 +20°C° 0.3 mm 1 mps 749 mmHg 85%
    21:00 +19°C° 1.4 mm 1 mps 749 mmHg 87%
    22:00 +18°C° 1.4 mm 1 mps 749 mmHg 90%
    23:00 +16°C° 1.4 mm 1 mps 749 mmHg 93%

    Tomorrow, 22 May, Wednesday

    Time Temperature Precipitation Wind Pressure Humidity
    00:00 +16°C° 0.6 mm 1 mps 749 mmHg 93%
    01:00 +16°C° 0.6 mm 1 mps 749 mmHg 94%
    02:00 +15°C° 0.6 mm 2 mps 749 mmHg 94%
    03:00 +15°C° 0.1 mm 2 mps 748 mmHg 94%
    04:00 +15°C° 0.1 mm 1 mps 748 mmHg 95%
    05:00 +15°C° 0.1 mm 1 mps 748 mmHg 95%
    06:00 +16°C° 0.1 mm 1 mps 748 mmHg 92%
    07:00 +18°C° 0.1 mm 2 mps 748 mmHg 88%
    08:00 +19°C° 0.1 mm 2 mps 748 mmHg 84%
    09:00 +21°C° 0.7 mm 2 mps 748 mmHg 78%
    10:00 +23°C° 0.7 mm 1 mps 747 mmHg 72%
    11:00 +24°C° 0.7 mm 1 mps 747 mmHg 66%
    12:00 +25°C° 0.1 mm 1 mps 747 mmHg 61%
    13:00 +26°C° 0.1 mm 1 mps 747 mmHg 57%
    14:00 +27°C° 0.1 mm 1 mps 746 mmHg 52%
    15:00 +26°C° 0 mm 1 mps 746 mmHg 53%
    16:00 +26°C° 0 mm 1 mps 746 mmHg 53%
    17:00 +26°C° 0 mm 1 mps 745 mmHg 54%
    18:00 +24°C° 0.6 mm 1 mps 745 mmHg 63%
    19:00 +22°C° 0.6 mm 1 mps 745 mmHg 73%
    20:00 +20°C° 0.6 mm 1 mps 745 mmHg 83%
    21:00 +17°C° 0.8 mm 0 mps 745 mmHg 85%
    22:00 +16°C° 0.8 mm 0 mps 745 mmHg 88%
    23:00 +15°C° 0.8 mm 0 mps 745 mmHg 90%

    Day after tomorrow, 23 May, Thursday

    Time Temperature Precipitation Wind Pressure Humidity
    00:00 +15°C° 0 mm 0 mps 745 mmHg 91%
    01:00 +14°C° 0 mm 0 mps 745 mmHg 92%
    02:00 +14°C° 0 mm 0 mps 745 mmHg 92%
    03:00 +15°C° 0 mm 1 mps 745 mmHg 93%
    04:00 +15°C° 0 mm 1 mps 746 mmHg 95%
    05:00 +15°C° 0 mm 2 mps 746 mmHg 96%
    06:00 +15°C° 0 mm 2 mps 746 mmHg 94%
    07:00 +16°C° 0 mm 3 mps 746 mmHg 93%
    08:00 +16°C° 0 mm 3 mps 746 mmHg 91%
    09:00 +16°C° 0 mm 3 mps 747 mmHg 89%
    10:00 +15°C° 0 mm 4 mps 747 mmHg 88%
    11:00 +14°C° 0 mm 4 mps 747 mmHg 86%
    12:00 +17°C° 0 mm 4 mps 747 mmHg 78%
    13:00 +19°C° 0 mm 4 mps 747 mmHg 71%
    14:00 +20°C° 0 mm 4 mps 748 mmHg 63%
    15:00 +20°C° 0 mm 4 mps 748 mmHg 62%
    16:00 +20°C° 0 mm 4 mps 747 mmHg 60%
    17:00 +21°C° 0 mm 4 mps 747 mmHg 59%
    18:00 +19°C° 0 mm 3 mps 748 mmHg 62%
    19:00 +17°C° 0 mm 3 mps 748 mmHg 65%
    20:00 +16°C° 0 mm 3 mps 748 mmHg 68%
    21:00 +14°C° 0 mm 3 mps 748 mmHg 66%
    22:00 +13°C° 0 mm 3 mps 749 mmHg 64%
    23:00 +12°C° 0 mm 3 mps 749 mmHg 62%

    24 May, Friday

    Time Temperature Precipitation Wind Pressure Humidity
    00:00 +11°C° 0 mm 3 mps 749 mmHg 63%
    01:00 +11°C° 0 mm 3 mps 749 mmHg 64%
    02:00 +10°C° 0 mm 3 mps 749 mmHg 65%
    03:00 +10°C° 0 mm 3 mps 749 mmHg 66%
    04:00 +10°C° 0 mm 3 mps 749 mmHg 66%
    05:00 +10°C° 0 mm 3 mps 749 mmHg 66%
    06:00 +12°C° 0 mm 3 mps 749 mmHg 66%
    07:00 +13°C° 0 mm 3 mps 749 mmHg 65%
    08:00 +16°C° 0 mm 3 mps 749 mmHg 65%
    09:00 +18°C° 0 mm 3 mps 748 mmHg 63%
    10:00 +19°C° 0 mm 3 mps 748 mmHg 60%
    11:00 +21°C° 0 mm 4 mps 748 mmHg 58%
    12:00 +21°C° 0.6 mm 3 mps 747 mmHg 66%
    13:00 +21°C° 0.6 mm 3 mps 747 mmHg 73%
    14:00 +21°C° 0.6 mm 2 mps 747 mmHg 80%
    15:00 +21°C° 1.8 mm 2 mps 746 mmHg 82%
    16:00 +20°C° 1.8 mm 2 mps 746 mmHg 85%
    17:00 +20°C° 1.8 mm 2 mps 745 mmHg 87%
    18:00 +19°C° 1.5 mm 2 mps 745 mmHg 89%
    19:00 +19°C° 1.5 mm 1 mps 745 mmHg 91%
    20:00 +18°C° 1.5 mm 1 mps 745 mmHg 94%
    21:00 +16°C° 0 mm 1 mps 745 mmHg 95%
    22:00 +16°C° 0 mm 1 mps 745 mmHg 96%
    23:00 +15°C° 0 mm 1 mps 745 mmHg 97%

    25 May, Saturday

    Time Temperature Precipitation Wind Pressure Humidity
    00:00 +15°C° 0.1 mm 1 mps 745 mmHg 97%
    01:00 +14°C° 0.1 mm 1 mps 744 mmHg 98%
    02:00 +14°C° 0.1 mm 1 mps 744 mmHg 98%
    03:00 +14°C° 0.1 mm 2 mps 744 mmHg 98%
    04:00 +14°C° 0.1 mm 2 mps 744 mmHg 98%
    05:00 +13°C° 0.1 mm 2 mps 744 mmHg 98%
    06:00 +13°C° 0.3 mm 2 mps 744 mmHg 97%
    07:00 +13°C° 0.3 mm 2 mps 744 mmHg 96%
    08:00 +13°C° 0.3 mm 2 mps 744 mmHg 96%
    09:00 +14°C° 0.2 mm 2 mps 744 mmHg 94%
    10:00 +14°C° 0.2 mm 2 mps 744 mmHg 92%
    11:00 +15°C° 0.2 mm 1 mps 744 mmHg 91%
    12:00 +16°C° 0 mm 1 mps 743 mmHg 80%
    13:00 +19°C° 0 mm 1 mps 743 mmHg 70%
    14:00 +21°C° 0 mm 1 mps 742 mmHg 60%
    15:00 +21°C° 0 mm 1 mps 742 mmHg 58%
    16:00 +20°C° 0 mm 2 mps 742 mmHg 56%
    17:00 +20°C° 0 mm 2 mps 741 mmHg 55%
    18:00 +18°C° 0 mm 2 mps 741 mmHg 62%
    19:00 +17°C° 0 mm 2 mps 741 mmHg 69%
    20:00 +15°C° 0 mm 1 mps 741 mmHg 76%
    21:00 +14°C° 0 mm 1 mps 741 mmHg 78%
    22:00 +12°C° 0 mm 1 mps 741 mmHg 81%
    23:00 +11°C° 0 mm 1 mps 740 mmHg 83%

    26 May, Sunday

    Time Temperature Precipitation Wind Pressure Humidity
    00:00 +10°C° 0 mm 1 mps 740 mmHg 86%
    01:00 +10°C° 0 mm 1 mps 740 mmHg 89%
    02:00 +9°C° 0 mm 1 mps 740 mmHg 92%
    03:00 +9°C° 0.1 mm 2 mps 740 mmHg 93%
    04:00 +9°C° 0.1 mm 2 mps 740 mmHg 93%
    05:00 +10°C° 0.1 mm 2 mps 740 mmHg 94%
    06:00 +10°C° 0.3 mm 3 mps 740 mmHg 94%
    07:00 +10°C° 0.3 mm 3 mps 739 mmHg 94%
    08:00 +10°C° 0.3 mm 3 mps 739 mmHg 95%
    09:00 +11°C° 0.1 mm 3 mps 739 mmHg 88%
    10:00 +12°C° 0.1 mm 3 mps 739 mmHg 82%
    11:00 +13°C° 0.1 mm 3 mps 739 mmHg 76%
    12:00 +13°C° 0.1 mm 3 mps 739 mmHg 74%
    13:00 +13°C° 0.1 mm 4 mps 738 mmHg 73%
    14:00 +14°C° 0.1 mm 4 mps 738 mmHg 71%
    15:00 +14°C° 0.3 mm 4 mps 738 mmHg 73%
    16:00 +14°C° 0.3 mm 4 mps 738 mmHg 74%
    17:00 +13°C° 0.3 mm 4 mps 737 mmHg 76%
    18:00 +12°C° 0.1 mm 3 mps 737 mmHg 81%
    19:00 +11°C° 0.1 mm 3 mps 737 mmHg 86%
    20:00 +12°C° 0.1 mm 2 mps 737 mmHg 90%
    21:00 +10°C° 0 mm 2 mps 737 mmHg 93%
    22:00 +9°C° 0 mm 2 mps 737 mmHg 95%
    23:00 +8°C° 0 mm 2 mps 737 mmHg 97%
    Show more